Total_Precipitation_Accumulation
0.33 0.48 0.70 0.98 1.45 2.13 2.79 3.05 2.84 2.23 1.81 1.56 1.39 1.18 1.00 0.85 0.70 0.59 0.45 0.33 0.28 0.20 0.16 0.12 0.11 0.15 0.11 0.06 0.16 0.28 0.25 0.15 0.32 0.36 0.19 0.11 0.08 0.09 0.09 0.08 0.05 0.04 0.04
0.40 0.69 1.04 1.46 1.90 2.22 2.42 2.36 2.00 1.44 1.10 0.88 0.74 0.58 0.48 0.44 0.38 0.29 0.22 0.19 0.15 0.11 0.08 0.06 0.04 0.04 0.05 0.03 0.06 0.17 0.21 0.17 0.25 0.28 0.21 0.09 0.05 0.04 0.03 0.04 0.04 0.02 0.04
0.78 1.33 1.80 2.00 2.00 1.94 1.68 1.28 0.93 0.66 0.57 0.44 0.36 0.25 0.19 0.18 0.17 0.16 0.14 0.11 0.09 0.07 0.05 0.04 0.02 0.01 0.02 0.02 0.04 0.10 0.14 0.15 0.14 0.19 0.24 0.11 0.03 0.04 0.03 0.03 0.05 0.06 0.06
1.05 1.54 1.84 1.80 1.58 1.27 0.87 0.57 0.43 0.35 0.30 0.25 0.23 0.21 0.16 0.15 0.14 0.14 0.14 0.13 0.09 0.08 0.06 0.04 0.02 0.02 0.02 0.03 0.03 0.05 0.10 0.12 0.09 0.08 0.11 0.13 0.13 0.10 0.04 0.03 0.03 0.05 0.08
0.80 0.91 0.93 0.88 0.72 0.52 0.46 0.43 0.35 0.35 0.34 0.29 0.25 0.23 0.19 0.17 0.17 0.18 0.18 0.20 0.20 0.16 0.13 0.10 0.07 0.05 0.04 0.05 0.06 0.07 0.09 0.11 0.11 0.12 0.13 0.17 0.21 0.19 0.13 0.05 0.03 0.07 0.10
0.45 0.39 0.30 0.26 0.24 0.22 0.23 0.24 0.24 0.31 0.37 0.35 0.31 0.27 0.23 0.20 0.18 0.17 0.17 0.19 0.21 0.22 0.21 0.18 0.16 0.13 0.11 0.09 0.07 0.07 0.08 0.12 0.16 0.18 0.18 0.20 0.18 0.16 0.19 0.14 0.10 0.12 0.14
0.33 0.35 0.30 0.23 0.18 0.15 0.13 0.13 0.13 0.15 0.19 0.22 0.23 0.23 0.23 0.21 0.18 0.17 0.14 0.16 0.17 0.19 0.21 0.21 0.19 0.19 0.18 0.16 0.11 0.08 0.07 0.10 0.13 0.15 0.17 0.20 0.23 0.27 0.30 0.30 0.25 0.27 0.28
0.21 0.24 0.22 0.17 0.14 0.10 0.08 0.06 0.06 0.07 0.07 0.08 0.10 0.11 0.15 0.16 0.17 0.21 0.17 0.16 0.18 0.19 0.19 0.19 0.18 0.18 0.20 0.21 0.19 0.14 0.12 0.12 0.11 0.10 0.16 0.19 0.23 0.35 0.38 0.40 0.46 0.40 0.39
0.10 0.10 0.09 0.07 0.06 0.05 0.05 0.04 0.03 0.03 0.03 0.03 0.05 0.06 0.09 0.12 0.14 0.16 0.17 0.16 0.21 0.20 0.20 0.20 0.19 0.20 0.20 0.21 0.22 0.18 0.15 0.14 0.11 0.14 0.21 0.24 0.29 0.38 0.40 0.44 0.51 0.51 0.46
0.06 0.06 0.05 0.04 0.03 0.02 0.02 0.02 0.02 0.02 0.01 0.01 0.02 0.02 0.04 0.07 0.09 0.10 0.12 0.14 0.16 0.18 0.19 0.19 0.18 0.18 0.19 0.20 0.20 0.19 0.19 0.18 0.18 0.22 0.26 0.29 0.33 0.38 0.37 0.44 0.51 0.52 0.54
0.03 0.03 0.02 0.02 0.02 0.01 0.01 0.02 0.02 0.02 0.02 0.01 0.01 0.01 0.03 0.04 0.06 0.10 0.12 0.13 0.12 0.12 0.12 0.14 0.16 0.17 0.19 0.22 0.26 0.28 0.28 0.30 0.30 0.31 0.33 0.37 0.40 0.41 0.39 0.47 0.49 0.47 0.54
0.01 0.01 0.01 0.01 0.01 0.01 0.01 0.02 0.02 0.02 0.02 0.02 0.01 0.01 0.01 0.02 0.03 0.06 0.09 0.10 0.11 0.11 0.11 0.11 0.12 0.13 0.13 0.19 0.28 0.38 0.38 0.36 0.35 0.42 0.50 0.50 0.52 0.45 0.40 0.45 0.44 0.43 0.56
0.00 0.00 0.00 0.01 0.01 0.01 0.02 0.02 0.02 0.01 0.01 0.01 0.01 0.00 0.00 0.00 0.01 0.03 0.05 0.06 0.08 0.10 0.10 0.11 0.10 0.10 0.09 0.11 0.19 0.31 0.36 0.42 0.51 0.60 0.57 0.51 0.52 0.46 0.41 0.41 0.39 0.41 0.55
0.00 0.00 0.00 0.00 0.00 0.01 0.01 0.01 0.00 0.00 0.00 0.00 0.00 0.01 0.01 0.01 0.01 0.01 0.02 0.03 0.05 0.07 0.09 0.11 0.11 0.11 0.09 0.09 0.15 0.22 0.29 0.41 0.58 0.61 0.49 0.47 0.49 0.44 0.36 0.32 0.29 0.31 0.36
0.00 0.00 0.00 0.01 0.01 0.01 0.01 0.02 0.02 0.02 0.03 0.04 0.04 0.04 0.04 0.05 0.05 0.05 0.04 0.04 0.04 0.05 0.08 0.10 0.10 0.10 0.09 0.08 0.15 0.22 0.19 0.22 0.30 0.33 0.29 0.31 0.39 0.43 0.36 0.26 0.23 0.24 0.24
0.03 0.04 0.04 0.05 0.04 0.04 0.04 0.03 0.03 0.03 0.04 0.04 0.04 0.03 0.03 0.03 0.04 0.04 0.03 0.03 0.03 0.06 0.09 0.12 0.12 0.12 0.10 0.10 0.11 0.13 0.14 0.14 0.14 0.15 0.18 0.17 0.18 0.22 0.28 0.27 0.24 0.24 0.23
0.10 0.07 0.05 0.03 0.02 0.01 0.01 0.00 0.00 0.00 0.01 0.01 0.02 0.02 0.02 0.03 0.03 0.03 0.03 0.03 0.04 0.06 0.10 0.13 0.14 0.15 0.15 0.13 0.08 0.07 0.08 0.09 0.08 0.09 0.10 0.11 0.11 0.12 0.13 0.16 0.15 0.15 0.16
0.03 0.01 0.00 0.00 0.00 0.00 0.00 0.00 0.00 0.00 0.00 0.01 0.01 0.02 0.03 0.03 0.05 0.06 0.06 0.08 0.08 0.08 0.11 0.14 0.17 0.19 0.19 0.16 0.11 0.10 0.08 0.08 0.09 0.09 0.08 0.08 0.08 0.09 0.09 0.09 0.08 0.08 0.09
0.00 0.00 0.00 0.00 0.00 0.00 0.00 0.00 0.00 0.00 0.01 0.02 0.04 0.06 0.07 0.08 0.10 0.12 0.14 0.16 0.16 0.15 0.14 0.15 0.18 0.20 0.22 0.20 0.14 0.13 0.10 0.10 0.11 0.11 0.11 0.10 0.08 0.08 0.09 0.08 0.05 0.04 0.07
0.00 0.00 0.00 0.00 0.00 0.00 0.00 0.00 0.00 0.01 0.01 0.03 0.05 0.08 0.12 0.16 0.18 0.20 0.22 0.23 0.23 0.21 0.19 0.17 0.18 0.22 0.25 0.24 0.18 0.15 0.12 0.14 0.15 0.16 0.16 0.16 0.12 0.10 0.09 0.09 0.07 0.03 0.03
0.00 0.00 0.00 0.00 0.00 0.00 0.01 0.02 0.03 0.03 0.04 0.05 0.06 0.08 0.13 0.19 0.21 0.24 0.27 0.29 0.28 0.29 0.27 0.23 0.22 0.25 0.29 0.32 0.24 0.19 0.16 0.19 0.24 0.24 0.24 0.22 0.20 0.15 0.11 0.10 0.10 0.06 0.04
0.00 0.00 0.00 0.00 0.00 0.01 0.03 0.05 0.06 0.06 0.08 0.09 0.10 0.11 0.16 0.22 0.24 0.29 0.32 0.35 0.37 0.39 0.39 0.38 0.34 0.33 0.33 0.36 0.33 0.24 0.18 0.23 0.30 0.34 0.34 0.32 0.31 0.24 0.18 0.15 0.11 0.09 0.07
0.00 0.00 0.00 0.00 0.01 0.02 0.05 0.09 0.09 0.10 0.12 0.13 0.13 0.16 0.19 0.29 0.40 0.41 0.38 0.40 0.42 0.41 0.41 0.45 0.46 0.46 0.44 0.40 0.37 0.30 0.22 0.26 0.36 0.41 0.45 0.44 0.42 0.38 0.29 0.24 0.18 0.11 0.08
0.00 0.00 0.01 0.02 0.03 0.04 0.06 0.09 0.12 0.16 0.19 0.18 0.17 0.18 0.23 0.35 0.56 0.65 0.56 0.49 0.46 0.45 0.46 0.45 0.45 0.48 0.52 0.47 0.38 0.31 0.26 0.32 0.44 0.47 0.47 0.50 0.51 0.51 0.46 0.36 0.26 0.15 0.10
0.01 0.01 0.03 0.05 0.05 0.06 0.08 0.11 0.16 0.22 0.24 0.22 0.20 0.20 0.26 0.37 0.56 0.69 0.67 0.59 0.56 0.55 0.54 0.49 0.46 0.43 0.42 0.43 0.42 0.32 0.29 0.38 0.49 0.48 0.50 0.53 0.57 0.58 0.56 0.47 0.34 0.23 0.16
0.03 0.04 0.06 0.08 0.09 0.11 0.13 0.15 0.20 0.26 0.30 0.29 0.25 0.26 0.29 0.35 0.53 0.72 0.78 0.63 0.53 0.53 0.50 0.43 0.39 0.35 0.30 0.31 0.35 0.32 0.31 0.37 0.43 0.41 0.46 0.52 0.55 0.57 0.56 0.51 0.40 0.30 0.21